PEGASUS DEB, 39322

Orbit data source: Space-Track

PEGASUS DEB, 39322 is space debris in LEO originally from a launch on Thu, 19 May 1994 UTC launched from the Air Force Western Test Range (AFWTR). Debris objects in space refer to the collection of defunct objects orbiting the Earth. Examples of debris include non-operational satellites, rocket bodies, and fragments generated from explosions, collisions, or faulty payload assembly.

Loading next visibility...
Identifier
39322, 1994-029AFH
Orbit
LEO
Country
Flag of USUS
Related business
Manufacturer
Unknown
Mission
Spacecraft
Bus & Motor
Unknown
Mass
Unknown
Launch date (UTC)
1994-05-19 (32 years ago)
Launch vehicle
Unknown
Launch site
Air Force Western Test Range (AFWTR)
Object type
Payload
Rocket body
Debris
Shape & HBR
Unknown shape, 0.1 m
Radar Cross Section
Small (<0.1 m²)

Expand to show TLE details & history
Last TLE update: 6 days ago

TLE from 6 days ago
0 PEGASUS DEB
1 39322U 94029AFH 26231.25887846  .00003805  00000-0  64352-3 0  9994
2 39322  81.9218  60.5247 0232344 145.1021 216.5665 14.52825171691986
Epoch: 2026-08-19T06:12Z
TLE epoch observation values (Epoch: 2026-08-19T06:12:47.098Z)
Latitude
0.00001°
Longitude
-0.28646°
Altitude
853.162 km
Speed
7.356 km/s
True Right ascension
04h 02m 05s
True Declination
0° 00' 00"
Sunlit
Object was in daylight at epoch
Visualization orbit readout
Latitude
Unknown
Longitude
Unknown
Altitude
Unknown
Speed
Unknown
Apparent Right ascension
Unknown
Apparent Declination
Unknown
Sunlit
N/A
Visualization observer readout
Local Sidereal Time
17:30:04
Azimuth
Unknown
Elevation
Unknown
Doppler factor
Unknown
Orbital elements
Apogee altitude
878.289 km
Perigee altitude
548.749 km
Semi-major axis
7,091.656 km
Eccentricity
0.02323
Inclination
81.9218°
RAAN
60.5247°
Arg. of periapsis
145.1021°
True anomaly
215.0167°
Mean anomaly
216.5665°
Eccentric anomaly
215.78801°
Mean motion
3.63431 °/min
Orbital period
99.06 mins
BSTAR
0.00064352
Loading maneuver chart data...
Computing Atmospheric mass density...

Documentation

Showing up to 5 results
|